Crane Lake, MN

8:41 PM CST on November 21, 2017 (GMT -0600)
Crane Lake

Weather History for KCDD - October, 2012

Change the Weather History Date:

Friday, October 5, 2012

  Actual Average Record
Temperature  
Mean Temperature 34 °F -  
Max Temperature 37 °F 55 °F 75 °F (2011)
Min Temperature 30 °F 36 °F 26 °F (2003)
Degree Days  
Heating Degree Days 32    
Moisture  
Dew Point 32 °F    
Average Humidity 97    
Maximum Humidity 100    
Minimum Humidity 93    
Precipitation  
Precipitation 0.12 in - - ()
Sea Level Pressure  
Sea Level Pressure 29.88 in    
Wind  
Wind Speed 10 mph (West)    
Max Wind Speed 15 mph    
Max Gust Speed 26 mph    
Visibility 5 miles    
Events Rain , Snow    
Averages and records for this station are not official NWS values.
T = Trace of Precipitation, MM = Missing Value Source: NWS Daily Summary

Daily Weather History Graph

Daily Weather History Graph

Search for Another Location

Airport or City:

Trip Planner

Search our weather history database for the weather conditions in past years. The results will help you decide how hot, cold, wet, or windy it might be!

Date:

Astronomy

Oct. 05, 2012 Rise Set
Actual Time 7:15 AM CDT 6:39 PM CDT
Civil Twilight 6:44 AM CDT 7:10 PM CDT
Nautical Twilight 6:08 AM CDT 7:46 PM CDT
Astronomical Twilight 5:31 AM CDT 8:23 PM CDT
Moon 9:41 PM CDT (10/5) 12:46 PM CDT (10/5)
Length of Visible Light 12h 26m
Length of Day
11h 24m
Waning Gibbous, 74% of the Moon is Illuminated
Oct 5
Waning Gibbous
Oct 8
Last Quarter
Oct 15
New
Oct 21
First Quarter
Oct 29
Full

Hourly Weather History & Observations

Time (CDT) Temp. Windchill Dew Point Humidity Pressure Visibility Wind Dir Wind Speed Gust Speed Precip Events Conditions
12:09 AM 32.0 °F 22.1 °F 30.2 °F 93% 29.75 in 5.0 mi WSW 13.8 mph 21.9 mph N/A   Overcast
12:29 AM 32.0 °F 22.1 °F 30.2 °F 93% 29.75 in 4.0 mi WSW 13.8 mph 20.7 mph N/A   Overcast
12:49 AM 32.0 °F 23.0 °F 30.2 °F 93% 29.75 in 4.0 mi SW 11.5 mph 18.4 mph N/A   Overcast
1:09 AM 32.0 °F 24.2 °F 30.2 °F 93% 29.76 in 2.5 mi WSW 9.2 mph - N/A Snow Light Snow
1:29 AM 32.0 °F 25.6 °F 30.2 °F 93% 29.76 in 2.0 mi WSW 6.9 mph 17.3 mph N/A Snow Light Snow
1:50 AM 32.0 °F 23.6 °F 30.2 °F 93% 29.77 in 2.5 mi WSW 10.4 mph 17.3 mph N/A Snow Light Snow
2:09 AM 30.2 °F 21.9 °F 30.2 °F 100% 29.76 in 1.8 mi WSW 9.2 mph - N/A Snow Light Snow
2:29 AM 30.2 °F 22.6 °F 30.2 °F 100% 29.77 in 1.8 mi WSW 8.1 mph - N/A Snow Light Snow
2:50 AM 30.2 °F 20.2 °F 30.2 °F 100% 29.77 in 1.8 mi WSW 12.7 mph - N/A Snow Light Snow
3:10 AM 30.2 °F 22.6 °F 30.2 °F 100% 29.77 in 1.5 mi WSW 8.1 mph - N/A Snow Light Snow
3:29 AM 30.2 °F 21.9 °F 30.2 °F 100% 29.77 in 1.5 mi WSW 9.2 mph 16.1 mph N/A Snow Light Snow
3:49 AM 30.2 °F 22.6 °F 30.2 °F 100% 29.77 in 2.0 mi WSW 8.1 mph 16.1 mph N/A Snow Light Snow
4:09 AM 30.2 °F 21.9 °F 30.2 °F 100% 29.77 in 2.5 mi WSW 9.2 mph 17.3 mph N/A Snow Light Snow
4:29 AM 30.2 °F 20.2 °F 30.2 °F 100% 29.77 in 2.0 mi WSW 12.7 mph 21.9 mph N/A Snow Light Snow
4:49 AM 30.2 °F 22.6 °F 30.2 °F 100% 29.77 in 1.8 mi WSW 8.1 mph 23.0 mph N/A Snow Light Snow
5:09 AM 30.2 °F 20.2 °F 30.2 °F 100% 29.77 in 2.5 mi WSW 12.7 mph 18.4 mph N/A Snow Light Snow
5:29 AM 30.2 °F 21.9 °F 30.2 °F 100% 29.77 in 2.5 mi WSW 9.2 mph 20.7 mph N/A Snow Light Snow
5:49 AM 30.2 °F 20.8 °F 30.2 °F 100% 29.77 in 2.5 mi SW 11.5 mph 20.7 mph N/A Snow Light Snow
6:09 AM 30.2 °F 21.9 °F 30.2 °F 100% 29.78 in 3.0 mi WSW 9.2 mph 23.0 mph N/A Snow Light Snow
6:29 AM 30.2 °F 21.9 °F 30.2 °F 100% 29.78 in 4.0 mi SW 9.2 mph 18.4 mph N/A Snow Light Snow
6:49 AM 30.2 °F 21.3 °F 30.2 °F 100% 29.78 in 1.8 mi SW 10.4 mph 19.6 mph N/A Snow Light Snow
7:09 AM 30.2 °F 20.8 °F 30.2 °F 100% 29.79 in 1.0 mi SW 11.5 mph 17.3 mph N/A Snow Light Snow
7:29 AM 30.2 °F 21.3 °F 30.2 °F 100% 29.79 in 1.0 mi WSW 10.4 mph 17.3 mph 0.01 in Snow Light Snow
7:50 AM 30.2 °F 21.3 °F 30.2 °F 100% 29.79 in 1.0 mi WSW 10.4 mph 19.6 mph 0.02 in Snow Light Snow
8:09 AM 30.2 °F 24.3 °F 30.2 °F 100% 29.79 in 1.8 mi SW 5.8 mph 17.3 mph N/A Snow Light Snow
8:29 AM 30.2 °F 20.8 °F 30.2 °F 100% 29.79 in 2.0 mi WSW 11.5 mph 19.6 mph N/A Snow Light Snow
8:50 AM 30.2 °F 21.9 °F 30.2 °F 100% 29.80 in 1.5 mi WSW 9.2 mph 19.6 mph N/A Snow Light Snow
9:10 AM 32.0 °F 24.8 °F 30.2 °F 93% 29.81 in 1.8 mi West 8.1 mph 18.4 mph N/A Snow Light Snow
9:29 AM 32.0 °F 24.8 °F 30.2 °F 93% 29.81 in 2.5 mi West 8.1 mph - N/A Snow Light Snow
9:49 AM 33.8 °F 26.4 °F 32.0 °F 93% 29.82 in 2.5 mi WSW 9.2 mph - N/A Snow Light Snow
10:09 AM 33.8 °F 28.6 °F 32.0 °F 93% 29.83 in 2.0 mi West 5.8 mph 18.4 mph N/A Snow Light Snow
10:30 AM 33.8 °F 25.8 °F 32.0 °F 93% 29.83 in 1.8 mi WSW 10.4 mph 18.4 mph N/A Snow Light Snow
10:49 AM 33.8 °F 27.0 °F 32.0 °F 93% 29.84 in 2.0 mi WSW 8.1 mph - N/A Snow Light Snow
11:09 AM 33.8 °F 27.0 °F 33.8 °F 100% 29.85 in 2.5 mi West 8.1 mph 17.3 mph N/A Snow Light Snow
11:29 AM 33.8 °F 28.6 °F 33.8 °F 100% 29.85 in 2.5 mi West 5.8 mph - N/A Snow Light Snow
11:50 AM 33.8 °F 29.6 °F 33.8 °F 100% 29.86 in 2.5 mi WSW 4.6 mph 17.3 mph N/A Snow Light Snow
12:09 PM 33.8 °F 27.0 °F 33.8 °F 100% 29.87 in 2.5 mi West 8.1 mph - N/A Rain Light Rain
12:29 PM 33.8 °F 26.4 °F 33.8 °F 100% 29.87 in 2.5 mi WSW 9.2 mph - 0.01 in Rain Light Rain
12:49 PM 33.8 °F 27.0 °F 33.8 °F 100% 29.88 in 3.0 mi West 8.1 mph - 0.02 in   Overcast
1:09 PM 35.6 °F 28.6 °F 35.6 °F 100% 29.88 in 5.0 mi West 9.2 mph - 0.01 in Rain Light Rain
1:30 PM 35.6 °F 29.2 °F 35.6 °F 100% 29.89 in 4.0 mi West 8.1 mph - 0.02 in Rain Rain
1:49 PM 35.6 °F 30.7 °F 35.6 °F 100% 29.89 in 5.0 mi West 5.8 mph - 0.04 in Rain Light Rain
2:09 PM 35.6 °F 31.7 °F 35.6 °F 100% 29.89 in 7.0 mi WNW 4.6 mph - 0.01 in Rain Rain
2:29 PM 35.6 °F 31.7 °F 35.6 °F 100% 29.90 in 4.0 mi NW 4.6 mph - 0.03 in Rain Rain
2:51 PM 37.4 °F 32.8 °F 35.6 °F 93% 29.90 in 10.0 mi WNW 5.8 mph - 0.03 in   Light Drizzle
3:09 PM 37.4 °F 31.4 °F 37.4 °F 100% 29.91 in 7.0 mi NW 8.1 mph - N/A Rain Light Rain
3:29 PM 37.4 °F 29.3 °F 35.6 °F 93% 29.92 in 4.0 mi NNW 12.7 mph 21.9 mph 0.01 in Rain Rain
3:50 PM 35.6 °F 28.0 °F 35.6 °F 100% 29.92 in 7.0 mi NNW 10.4 mph 18.4 mph 0.01 in Rain Light Rain
4:09 PM 37.4 °F 30.8 °F 35.6 °F 93% 29.93 in 7.0 mi NW 9.2 mph - N/A Rain Light Rain
4:29 PM 37.4 °F 30.8 °F 35.6 °F 93% 29.94 in 10.0 mi NNW 9.2 mph 16.1 mph N/A Rain Light Rain
4:49 PM 37.4 °F 30.3 °F 35.6 °F 93% 29.95 in 10.0 mi NW 10.4 mph - N/A   Overcast
5:10 PM 37.4 °F 29.3 °F 35.6 °F 93% 29.96 in 7.0 mi NW 12.7 mph 20.7 mph N/A   Overcast
5:29 PM 35.6 °F 28.0 °F 35.6 °F 100% 29.96 in 10.0 mi NNW 10.4 mph 16.1 mph N/A   Overcast
5:49 PM 35.6 °F 29.2 °F 35.6 °F 100% 29.98 in 10.0 mi NNW 8.1 mph 17.3 mph N/A   Overcast
6:09 PM 35.6 °F 28.6 °F 35.6 °F 100% 29.99 in 10.0 mi NNW 9.2 mph 17.3 mph N/A   Overcast
6:29 PM 35.6 °F 29.2 °F 33.8 °F 93% 30.00 in 10.0 mi NNW 8.1 mph 16.1 mph N/A   Overcast
6:49 PM 35.6 °F 27.1 °F 33.8 °F 93% 30.01 in 10.0 mi NNW 12.7 mph 19.6 mph N/A   Overcast
7:09 PM 33.8 °F 24.8 °F 33.8 °F 100% 30.02 in 10.0 mi NNW 12.7 mph 18.4 mph N/A Rain Light Rain
7:29 PM 33.8 °F 24.8 °F 33.8 °F 100% 30.03 in 10.0 mi NNW 12.7 mph 18.4 mph N/A Rain Light Rain
7:49 PM 33.8 °F 25.3 °F 33.8 °F 100% 30.04 in 10.0 mi NNW 11.5 mph 18.4 mph N/A   Overcast
8:09 PM 33.8 °F 27.0 °F 33.8 °F 100% 30.05 in 10.0 mi NNW 8.1 mph 16.1 mph N/A Snow Light Snow
8:29 PM 33.8 °F 23.9 °F 33.8 °F 100% 30.06 in 10.0 mi NNW 15.0 mph 19.6 mph N/A Snow Light Snow
8:49 PM 33.8 °F 26.4 °F 32.0 °F 93% 30.06 in 10.0 mi North 9.2 mph 26.5 mph N/A   Overcast
9:09 PM 33.8 °F 25.3 °F 32.0 °F 93% 30.07 in 7.0 mi North 11.5 mph 16.1 mph N/A Snow Light Snow
9:29 PM 33.8 °F 25.3 °F 32.0 °F 93% 30.07 in 10.0 mi NNW 11.5 mph 20.7 mph N/A   Overcast
9:49 PM 33.8 °F 25.3 °F 32.0 °F 93% 30.08 in 7.0 mi NNW 11.5 mph 17.3 mph N/A   Overcast
10:09 PM 33.8 °F 25.3 °F 32.0 °F 93% 30.08 in 10.0 mi North 11.5 mph 17.3 mph N/A   Overcast
10:29 PM 33.8 °F 26.4 °F 32.0 °F 93% 30.09 in 10.0 mi NNW 9.2 mph 16.1 mph N/A   Overcast
10:49 PM 33.8 °F 27.0 °F 32.0 °F 93% 30.09 in 10.0 mi NNW 8.1 mph - N/A   Overcast
11:49 PM 32.0 °F 23.6 °F 32.0 °F 100% 30.10 in 10.0 mi NNW 10.4 mph 20.7 mph N/A   Overcast